Date,TemperatureHighF,TemperatureAvgF,TemperatureLowF,DewpointHighF,DewpointAvgF,DewpointLowF,HumidityHigh,HumidityAvg,HumidityLow,PressureMaxIn,PressureMinIn,WindSpeedMaxMPH,WindSpeedAvgMPH,GustSpeedMaxMPH,PrecipitationSumIn
2013-1-1,47,41,32,40,30,23,85,66,49,30.33,30.02,18,3,18,0.00
2013-1-2,48,36,30,27,25,23,80,65,43,30.40,30.26,9,0,10,0.00
2013-1-3,44,36,26,32,25,20,87,66,48,30.53,30.38,14,1,16,0.03
2013-1-4,39,36,33,36,33,31,95,91,82,30.55,30.40,8,0,8,0.29
2013-1-5,55,43,36,37,35,32,93,75,46,30.41,30.24,24,3,24,0.00
2013-1-6,58,42,32,32,26,22,87,57,25,30.48,30.33,12,1,12,0.01
2013-1-7,53,41,30,32,29,25,83,64,41,30.35,30.09,14,1,14,0.00
2013-1-8,50,46,40,49,42,32,95,88,71,30.09,29.93,13,1,14,0.27
2013-1-9,49,47,46,48,46,44,98,94,91,30.15,29.89,26,4,28,0.69
2013-1-10,60,50,44,48,44,40,100,82,59,30.03,29.92,27,4,27,0.03
2013-1-11,72,57,44,53,47,39,88,70,42,29.94,29.72,24,1,24,0.03
2013-1-12,58,49,34,52,36,21,86,61,42,30.03,29.74,23,4,23,0.00
2013-1-13,41,33,26,23,21,19,78,62,46,30.30,30.03,17,4,18,0.00
2013-1-14,45,33,23,23,19,15,74,58,38,30.36,30.21,8,1,15,0.00
2013-1-15,37,32,26,24,20,16,73,59,43,30.35,30.20,18,3,18,0.00
2013-1-16,54,36,20,29,22,16,88,61,27,30.40,30.23,23,3,23,0.00
2013-1-17,60,45,32,33,30,27,84,58,32,30.56,30.36,12,1,13,0.00
2013-1-18,66,47,28,35,31,25,90,58,28,30.53,30.25,18,1,18,0.00
2013-1-19,70,51,34,37,33,29,82,54,24,30.26,30.10,20,2,22,0.00
2013-1-20,70,49,33,37,31,25,84,54,19,30.26,30.08,12,0,13,0.00
2013-1-21,55,44,36,33,30,27,79,60,39,30.31,30.15,16,2,16,0.00
2013-1-22,70,49,34,51,37,26,88,64,41,30.32,30.16,19,1,20,0.00
2013-1-23,78,57,40,56,46,38,97,71,31,30.28,30.11,18,2,18,0.00
2013-1-24,83,63,47,57,48,43,94,63,26,30.19,30.00,19,2,22,0.00
2013-1-25,65,56,48,54,44,35,86,65,46,30.17,30.00,21,3,23,0.00
2013-1-26,65,54,41,55,45,36,91,73,53,30.18,30.01,15,1,15,0.00
2013-1-27,78,64,54,57,54,52,93,73,44,30.01,29.85,18,1,19,0.00
2013-1-28,79,68,56,63,59,52,96,75,50,29.92,29.73,24,2,24,0.00
2013-1-29,70,62,51,63,42,16,88,54,23,29.81,29.56,43,11,44,0.05
2013-1-30,53,45,36,28,18,9,62,36,17,30.20,29.80,30,8,30,0.05
2013-1-31,68,49,31,30,21,14,57,35,17,30.27,30.13,30,4,30,0.00
2013-2-1,70,53,38,38,31,22,69,45,23,30.33,30.09,21,1,21,0.00
2013-2-2,66,51,38,46,33,27,90,55,25,30.34,30.11,21,2,21,0.00
2013-2-3,69,52,34,47,36,27,76,56,27,30.35,29.93,21,2,23,0.00
2013-2-4,76,62,50,50,42,32,79,51,23,29.93,29.75,24,4,24,0.00
2013-2-5,76,58,40,48,36,30,74,48,20,30.01,29.88,9,0,9,0.00
2013-2-6,79,64,50,56,49,44,89,63,31,29.94,29.73,16,1,16,0.00
2013-2-7,72,61,50,57,46,37,92,63,30,30.15,29.81,24,4,24,0.00
2013-2-8,65,53,38,40,27,21,74,42,19,30.27,30.03,14,1,14,0.00
2013-2-9,70,59,50,58,46,24,79,62,31,30.07,29.64,29,5,30,0.00
2013-2-10,66,57,46,58,25,12,90,34,13,29.97,29.68,23,4,24,0.50
2013-2-11,62,52,45,43,37,24,77,58,38,30.07,29.95,16,1,21,0.50
2013-2-12,64,50,38,48,38,26,98,69,24,30.13,29.85,34,7,34,0.01
2013-2-13,62,45,32,34,28,20,88,57,23,30.19,30.02,14,1,14,0.00
2013-2-14,70,50,31,34,27,20,83,47,16,30.11,29.95,18,1,18,0.00
2013-2-15,52,46,36,36,28,14,78,52,25,30.43,30.06,23,4,28,0.00
2013-2-16,66,46,27,27,23,18,74,44,19,30.49,30.17,21,2,21,0.00
2013-2-17,72,54,34,46,30,20,75,45,14,30.17,29.83,22,3,26,0.00
2013-2-18,71,60,46,51,36,16,82,47,13,30.10,29.77,35,6,35,0.00
2013-2-19,60,51,40,30,27,23,62,41,25,30.25,30.06,19,3,23,0.00
2013-2-20,54,49,47,46,42,30,95,78,39,30.08,29.60,20,3,22,0.05
2013-2-21,65,54,44,52,35,21,97,58,20,29.89,29.52,41,8,41,0.06
2013-2-22,59,42,30,37,26,20,79,55,29,30.15,29.88,19,2,21,0.06
2013-2-23,67,47,29,32,23,12,84,47,12,30.13,29.85,18,2,18,0.00
2013-2-24,78,59,40,53,40,22,79,54,22,29.85,29.50,28,3,28,0.00
2013-2-25,61,44,40,53,32,27,75,64,53,29.93,29.50,40,13,40,0.03
2013-2-26,64,46,32,28,26,24,76,49,23,30.00,29.79,13,2,19,0.00
2013-2-27,56,45,35,32,24,13,75,46,19,30.30,29.81,25,5,26,0.00
2013-2-28,60,44,29,29,22,15,79,46,18,30.39,30.23,16,1,17,0.00
2013-3-1,63,47,30,26,20,11,67,38,14,30.35,30.20,29,3,30,0.00
2013-3-2,67,49,32,31,27,23,69,45,24,30.47,30.22,17,1,17,0.00
2013-3-3,78,59,35,31,25,19,69,34,11,30.22,29.75,29,4,31,0.00
2013-3-4,85,69,55,42,23,10,43,20,6,29.80,29.61,32,7,37,0.00
2013-3-5,62,49,38,41,20,8,59,35,14,30.40,29.80,42,8,43,0.00
2013-3-6,65,47,29,19,14,8,59,31,12,30.46,30.17,17,2,18,0.00
2013-3-7,75,58,43,47,33,16,68,40,29,30.17,29.99,19,3,23,0.00
2013-3-8,71,63,55,60,57,47,94,80,64,30.03,29.83,20,5,25,0.00
2013-3-9,80,69,63,60,50,24,83,56,22,29.84,29.57,35,5,36,0.05
2013-3-10,63,53,45,30,23,12,50,32,17,30.13,29.74,31,10,31,0.05
2013-3-11,72,50,29,24,18,13,60,31,14,30.20,29.97,18,2,19,0.00
2013-3-12,70,56,38,31,26,19,66,35,15,30.31,29.99,24,5,25,0.00
2013-3-13,77,57,38,36,30,25,62,38,21,30.42,30.20,21,1,21,0.00
2013-3-14,81,63,44,47,39,34,72,44,20,30.29,30.10,19,1,21,0.00
2013-3-15,86,67,48,51,42,38,72,45,19,30.14,29.84,19,2,22,0.00
2013-3-16,92,73,55,50,42,32,72,38,12,29.86,29.55,25,3,25,0.00
2013-3-17,80,64,48,46,42,37,68,47,28,29.79,29.60,24,2,26,0.00
2013-3-18,71,62,50,44,41,36,68,47,34,29.94,29.66,30,2,30,0.00
2013-3-19,81,61,45,49,44,38,82,56,25,30.08,29.79,20,3,22,0.00
2013-3-20,70,60,44,46,32,27,62,38,21,30.28,29.96,20,2,20,0.00
2013-3-21,85,67,50,54,45,32,63,47,28,29.97,29.44,27,5,27,0.00
2013-3-22,69,58,48,56,46,39,81,66,52,29.77,29.53,22,4,22,0.00
2013-3-23,83,60,47,50,40,14,88,57,9,29.85,29.54,41,4,41,0.00
2013-3-24,54,44,33,44,22,14,76,43,22,30.23,29.84,30,8,31,0.00
2013-3-25,56,44,30,18,14,7,54,32,17,30.42,30.20,15,1,15,0.00
2013-3-26,66,49,29,20,16,13,54,30,14,30.48,30.20,20,2,21,0.00
2013-3-27,75,58,42,46,34,17,59,42,29,30.23,30.00,25,4,25,0.00
2013-3-28,80,64,48,55,49,42,86,62,39,30.10,29.96,20,3,21,0.00
2013-3-29,80,68,58,58,56,54,86,68,43,30.07,29.93,19,2,19,0.00
2013-3-30,88,71,55,61,55,41,92,61,22,30.04,29.76,25,2,26,0.00
2013-3-31,80,71,64,58,53,47,76,56,35,29.94,29.80,24,2,24,0.00
2013-4-1,86,71,53,57,51,46,82,53,29,30.02,29.77,19,2,19,0.00
2013-4-2,75,58,43,60,51,41,94,78,54,29.99,29.80,28,6,35,0.54
2013-4-3,46,44,41,41,40,38,91,85,79,30.23,29.96,23,8,24,0.04
2013-4-4,68,50,40,46,40,34,83,68,37,30.29,30.10,19,4,19,0.00
2013-4-5,77,58,39,49,44,37,92,63,27,30.23,29.94,18,2,20,0.00
2013-4-6,86,69,52,57,49,44,76,52,26,29.96,29.69,24,3,28,0.00
2013-4-7,92,73,57,61,55,43,91,59,19,29.79,29.56,21,2,21,0.00
2013-4-8,88,73,62,63,61,56,90,69,35,29.65,29.45,23,4,27,0.00
2013-4-9,95,76,48,63,54,32,82,54,15,29.69,29.40,32,6,34,0.00
2013-4-10,55,44,35,37,35,29,92,70,51,30.03,29.69,28,8,29,0.07
2013-4-11,70,54,39,38,34,28,86,50,25,30.04,29.76,12,0,13,0.07
2013-4-12,84,65,45,44,40,36,76,45,20,29.94,29.73,21,2,21,0.00
2013-4-13,82,69,53,48,40,34,60,37,18,29.87,29.65,23,3,24,0.00
2013-4-14,93,75,55,57,41,23,82,41,8,29.71,29.45,34,6,34,0.00
2013-4-15,95,79,58,62,44,30,59,32,10,29.64,29.54,21,2,23,0.00
2013-4-16,92,79,66,65,62,53,84,58,37,29.75,29.61,25,3,25,0.00
2013-4-17,92,80,72,69,66,64,83,65,40,29.72,29.44,32,6,33,0.00
2013-4-18,75,54,44,68,38,26,90,56,29,30.16,29.50,33,10,35,0.20
2013-4-19,68,53,36,33,26,18,82,40,16,30.35,30.12,17,1,17,0.20
2013-4-20,77,61,44,34,30,28,57,34,18,30.14,29.84,28,4,28,0.00
2013-4-21,81,66,50,51,46,30,83,52,30,30.06,29.91,19,3,19,0.00
2013-4-22,88,72,58,58,54,51,86,57,31,29.98,29.70,23,4,24,0.00
2013-4-23,71,53,43,57,41,32,76,63,53,30.23,29.69,26,6,26,0.00
2013-4-24,65,50,36,34,28,25,68,46,24,30.38,30.18,26,4,26,0.00
2013-4-25,68,61,54,48,39,33,50,44,35,30.31,30.06,22,3,22,0.00
2013-4-26,89,72,60,60,54,39,77,56,26,30.09,29.86,23,3,23,0.00
2013-4-27,84,70,58,59,50,38,89,55,21,30.07,29.92,17,1,17,0.00
2013-4-28,91,72,53,61,49,38,86,50,16,29.99,29.75,14,1,14,0.00
2013-4-29,90,74,56,59,50,41,78,46,20,29.85,29.65,23,2,25,0.00
2013-4-30,94,76,59,62,57,51,88,56,24,29.76,29.55,21,3,23,0.00
2013-5-1,94,78,66,65,60,46,84,56,25,29.92,29.61,35,2,35,0.00
2013-5-2,66,48,42,56,36,30,79,66,48,30.45,29.92,33,13,34,0.00
2013-5-3,69,54,36,30,23,15,66,35,13,30.45,30.03,18,3,19,0.00
2013-5-4,80,63,40,29,24,20,59,26,11,30.05,29.88,17,2,18,0.00
2013-5-5,76,62,44,43,36,26,59,40,25,30.17,29.99,17,2,17,0.00
2013-5-6,68,60,51,56,47,42,87,65,44,30.10,29.99,10,0,10,0.15
2013-5-7,88,69,50,55,49,46,88,55,26,30.05,29.82,21,2,21,0.00
2013-5-8,79,72,64,64,59,49,81,65,44,29.89,29.75,22,3,25,0.00
2013-5-9,76,68,62,64,61,57,94,80,55,29.91,29.74,46,1,46,0.73
2013-5-10,79,66,60,60,58,54,93,79,48,30.08,29.83,35,2,35,0.35
2013-5-11,80,68,55,57,51,40,94,61,25,30.16,30.05,22,2,25,0.01
2013-5-12,80,68,56,52,50,44,76,54,29,30.25,30.09,13,1,13,0.00
2013-5-13,88,72,53,52,46,36,83,46,16,30.22,30.04,14,2,17,0.00
2013-5-14,88,74,60,61,56,49,90,55,35,30.11,29.86,34,2,34,0.13
2013-5-15,92,73,61,67,60,50,95,70,26,30.00,29.63,28,3,30,0.29
2013-5-16,97,81,66,71,64,58,91,60,31,29.71,29.59,15,1,15,0.00
2013-5-17,106,88,70,70,60,32,89,50,9,29.72,29.60,17,2,21,0.00
2013-5-18,98,86,74,71,67,63,86,56,34,29.73,29.59,22,3,22,0.00
2013-5-19,101,86,72,67,53,27,78,43,8,29.69,29.54,23,3,25,0.00
2013-5-20,101,86,72,70,59,26,85,50,8,29.68,29.50,23,4,23,0.00
2013-5-21,87,76,67,70,59,47,82,58,33,29.82,29.58,35,4,36,0.00
2013-5-22,96,77,57,55,50,45,82,43,18,29.89,29.68,20,2,21,0.00
2013-5-23,95,81,68,69,66,55,87,62,38,29.99,29.72,29,4,30,0.06
2013-5-24,81,73,66,67,63,58,92,72,55,30.05,29.90,26,4,26,0.33
2013-5-25,86,75,67,68,66,63,92,73,50,30.06,29.88,24,4,24,0.33
2013-5-26,90,79,71,68,66,60,88,65,42,29.99,29.81,22,3,23,0.00
2013-5-27,88,80,71,69,67,64,85,67,51,29.87,29.68,28,4,28,0.00
2013-5-28,85,77,70,70,66,64,82,70,52,29.77,29.53,33,6,35,0.00
2013-5-29,89,80,72,69,67,64,80,65,45,29.66,29.51,26,6,30,0.00
2013-5-30,97,84,74,70,67,58,83,59,28,29.69,29.56,21,4,22,0.00
2013-5-31,100,86,72,72,69,65,89,61,34,29.72,29.55,21,3,21,0.00
2013-6-1,90,83,75,72,67,55,84,59,42,29.91,29.59,20,3,23,0.00
2013-6-2,89,79,66,60,56,53,72,47,30,30.03,29.82,15,2,15,0.00
2013-6-3,96,82,67,68,62,56,72,53,37,29.92,29.69,23,2,23,0.00
2013-6-4,102,87,70,68,65,58,78,50,29,29.75,29.58,22,4,26,0.00
2013-6-5,100,85,70,67,62,48,75,48,26,29.77,29.60,37,4,37,0.00
2013-6-6,85,76,67,64,61,57,81,61,45,29.90,29.68,32,4,34,0.00
2013-6-7,84,74,66,66,60,52,91,64,36,29.99,29.81,18,1,18,0.13
2013-6-8,91,77,62,65,59,54,80,55,38,29.89,29.67,21,2,23,0.00
2013-6-9,94,80,65,68,64,56,95,61,30,29.93,29.73,19,2,19,0.93
2013-6-10,97,83,68,70,62,46,91,55,19,29.94,29.80,18,2,18,0.93
2013-6-11,96,84,70,70,64,54,81,54,32,29.94,29.81,21,2,21,0.00
2013-6-12,94,83,70,68,65,60,84,57,38,29.96,29.83,18,2,19,0.00
2013-6-13,96,82,72,71,67,63,86,63,35,29.98,29.81,32,2,33,0.08
2013-6-14,84,75,72,71,68,65,90,78,59,29.95,29.87,17,1,17,0.00
2013-6-17,98,89,72,72,67,58,86,51,36,29.91,29.72,25,3,27,0.23
2013-6-18,93,79,68,68,65,63,93,66,40,29.99,29.82,37,1,37,0.23
2013-6-19,97,83,73,71,67,63,87,62,35,29.87,29.78,28,2,30,0.18
2013-6-20,94,84,74,69,66,64,82,58,40,29.92,29.79,27,3,27,0.00
2013-6-21,95,85,75,70,65,60,83,55,34,29.95,29.82,22,3,24,0.00
2013-6-22,96,85,74,69,63,57,79,51,28,29.91,29.75,29,4,29,0.00
2013-6-23,95,85,73,66,64,60,76,51,31,29.86,29.73,25,5,25,0.00
2013-6-24,95,84,74,69,65,62,76,56,34,29.91,29.75,24,5,26,0.00
2013-6-25,100,88,76,71,67,61,78,53,31,29.86,29.70,20,4,20,0.00
2013-6-26,102,89,75,72,67,62,77,51,30,29.82,29.73,21,3,21,0.00
2013-6-27,104,90,75,70,62,51,79,44,18,29.91,29.78,13,2,14,0.00
2013-6-28,105,90,72,67,58,53,59,37,20,29.93,29.73,12,2,14,0.00
2013-6-29,106,93,78,68,61,52,66,38,18,29.83,29.66,14,1,15,0.00
2013-6-30,93,83,70,69,65,58,91,58,38,29.90,29.74,24,2,24,0.31
2013-7-1,87,78,72,69,55,46,75,47,28,30.04,29.85,18,2,18,0.00
2013-7-2,88,77,62,53,48,42,74,40,20,30.10,29.93,18,1,20,0.00
2013-7-3,93,78,62,53,46,40,67,35,17,30.02,29.84,13,1,16,0.00
2013-7-4,94,81,69,59,50,46,49,36,20,29.93,29.78,18,2,18,0.00
2013-7-5,99,85,68,58,52,47,62,35,18,29.91,29.72,21,2,25,0.00
2013-7-6,98,85,71,62,55,49,68,40,21,29.86,29.71,18,2,22,0.00
2013-7-7,98,86,72,66,59,55,68,43,26,29.90,29.78,19,2,19,0.00
2013-7-8,97,85,75,71,67,58,77,56,35,29.99,29.86,20,3,28,0.00
2013-7-9,99,86,74,70,64,58,82,51,30,30.04,29.88,19,2,19,0.00
2013-7-10,102,89,74,70,64,57,75,46,25,30.01,29.80,16,2,16,0.00
2013-7-11,100,89,75,68,62,58,68,43,26,29.90,29.74,16,2,16,0.00
2013-7-12,102,90,76,67,60,52,62,39,20,29.87,29.75,17,2,20,0.00
2013-7-13,103,90,75,64,56,48,57,34,17,29.91,29.75,11,1,14,0.00
2013-7-14,101,85,68,65,59,54,89,44,23,29.85,29.71,25,4,25,0.02
2013-7-15,69,66,63,67,64,61,96,93,87,30.01,29.82,16,2,16,1.99
2013-7-16,79,71,67,73,69,66,97,94,77,30.12,29.98,18,1,18,1.48
2013-7-17,83,74,70,73,69,68,95,86,62,30.17,30.06,21,1,21,0.09
2013-7-18,85,76,70,71,69,67,95,80,57,30.14,29.97,19,0,20,0.09
2013-7-19,92,81,70,72,68,62,95,68,37,30.02,29.84,11,0,11,0.02
2013-7-20,95,83,71,71,67,61,87,61,34,29.91,29.75,11,1,12,0.00
2013-7-21,96,84,73,72,69,65,85,64,38,29.87,29.75,20,1,20,0.00
2013-7-22,95,84,74,74,71,69,89,66,45,29.89,29.76,16,1,18,0.00
2013-7-23,97,86,76,75,71,64,86,62,44,29.87,29.74,14,1,17,0.00
2013-7-24,98,86,73,73,67,61,76,54,35,29.90,29.78,11,1,17,0.00
2013-7-25,98,86,76,72,70,67,78,59,40,29.95,29.84,15,1,16,0.00
2013-7-26,98,84,78,71,68,65,75,59,40,29.94,29.81,23,2,23,0.00
2013-7-27,91,81,71,68,63,52,83,58,28,29.98,29.83,18,1,18,0.00
2013-7-28,95,82,67,69,65,60,87,60,37,29.90,29.74,13,1,15,0.00
2013-7-29,98,87,78,74,68,58,80,55,32,29.87,29.78,17,2,17,0.00
2013-7-30,100,88,78,71,68,58,76,53,35,29.97,29.83,15,1,15,0.00
2013-7-31,102,88,75,71,67,62,78,51,32,30.00,29.84,15,1,15,0.00
2013-8-1,103,89,75,70,64,58,68,45,27,29.96,29.81,14,2,18,0.00
2013-8-2,104,90,76,67,63,57,72,44,24,29.88,29.74,17,2,17,0.00
2013-8-3,101,88,74,66,62,59,69,44,26,29.89,29.80,17,2,19,0.00
2013-8-4,99,88,76,70,65,60,77,49,30,29.96,29.80,14,1,14,0.00
2013-8-5,102,89,78,68,63,59,67,44,27,29.92,29.73,14,2,17,0.00
2013-8-6,105,91,75,69,64,56,78,44,21,29.81,29.65,22,2,22,0.00
2013-8-7,106,90,75,71,65,60,87,47,23,29.81,29.62,27,2,41,0.22
2013-8-8,104,85,74,73,69,58,91,65,24,29.81,29.64,28,2,30,0.22
2013-8-9,102,87,73,72,68,59,89,57,26,29.91,29.74,13,1,14,0.00
2013-8-10,96,85,75,72,68,64,82,59,37,30.02,29.88,16,2,16,0.00
2013-8-11,99,87,74,69,66,63,80,52,32,30.00,29.86,13,1,14,0.00
2013-8-12,98,86,73,69,66,62,82,53,33,29.98,29.83,18,1,18,0.00
2013-8-13,100,88,76,70,64,59,72,47,27,29.95,29.80,15,1,15,0.00
2013-8-14,88,82,77,70,67,61,75,62,43,29.98,29.84,17,2,17,0.00
2013-8-15,94,81,72,70,68,63,86,66,41,29.96,29.86,21,2,25,0.00
2013-8-16,94,77,65,68,63,56,94,67,31,30.17,29.89,23,2,27,0.20
2013-8-17,93,80,68,68,62,57,84,57,31,30.03,29.87,12,1,12,0.00
2013-8-18,94,82,68,62,59,56,79,49,31,30.00,29.88,19,2,21,0.00
2013-8-19,96,83,70,63,60,57,70,48,31,29.98,29.82,19,2,19,0.00
2013-8-20,96,84,72,65,60,55,69,47,29,29.95,29.85,18,1,19,0.00
2013-8-21,95,82,69,68,62,55,81,54,32,30.01,29.88,18,1,18,0.00
2013-8-22,96,86,71,68,64,60,83,52,31,30.01,29.83,15,1,17,0.00
2013-8-23,98,83,74,70,66,61,73,58,32,29.96,29.83,24,1,24,0.02
2013-8-24,98,84,71,69,65,60,85,57,30,30.01,29.87,17,1,17,0.02
2013-8-25,96,86,74,70,65,60,72,50,32,30.04,29.92,17,1,19,0.00
2013-8-26,91,82,72,69,65,63,79,57,41,30.07,29.95,18,1,18,0.00
2013-8-27,86,78,72,71,68,64,87,71,55,30.03,29.93,18,1,21,0.01
2013-8-28,96,82,69,70,65,58,93,62,29,30.05,29.93,18,1,20,0.01
2013-8-29,97,84,70,68,62,59,74,51,32,30.04,29.90,19,1,19,0.00
2013-8-30,100,86,68,65,61,59,74,46,27,29.98,29.81,14,1,14,0.00
2013-8-31,102,87,70,63,61,58,69,44,24,29.87,29.72,24,1,24,0.00
2013-9-1,103,88,73,64,62,58,68,43,25,29.83,29.70,13,1,13,0.00
2013-9-2,94,83,74,67,64,58,76,54,31,29.96,29.78,26,2,26,0.00
2013-9-3,98,84,70,68,64,57,79,54,27,29.97,29.83,15,1,16,0.00
2013-9-4,99,86,71,64,56,42,60,39,17,29.99,29.87,14,1,16,0.00
2013-9-5,98,84,72,67,64,60,68,52,32,30.03,29.91,21,1,21,0.00
2013-9-6,98,86,73,69,64,56,76,51,28,30.03,29.87,15,1,15,0.00
2013-9-7,97,84,72,68,62,57,71,51,29,29.97,29.82,18,1,18,0.00
2013-9-8,94,82,70,70,66,62,86,62,37,29.91,29.77,21,2,21,0.00
2013-9-9,90,79,68,69,65,62,90,65,41,29.93,29.81,24,3,24,0.00
2013-9-10,86,78,71,69,67,66,85,69,52,30.00,29.89,25,3,26,0.00
2013-9-11,90,80,70,69,66,60,91,67,38,30.06,29.91,20,2,20,0.00
2013-9-12,93,80,68,69,63,58,83,59,34,30.03,29.86,16,1,16,0.00
2013-9-13,95,82,67,65,58,51,72,46,23,29.93,29.75,10,1,19,0.00
2013-9-14,95,83,69,63,59,55,65,46,32,29.89,29.76,15,1,16,0.00
2013-9-15,92,82,70,66,62,60,75,52,35,29.95,29.83,21,2,21,0.00
2013-9-16,93,83,76,69,65,59,71,55,34,30.00,29.88,18,2,21,0.00
2013-9-17,88,80,72,70,67,64,92,67,45,30.01,29.88,15,1,17,0.10
2013-9-18,92,82,73,70,65,61,84,59,38,29.94,29.78,19,2,23,0.00
2013-9-19,81,74,70,72,69,64,96,84,58,29.91,29.82,12,0,12,0.95
2013-9-20,71,69,66,70,67,63,96,92,85,29.95,29.81,17,2,17,0.86
2013-9-21,81,70,62,64,55,45,91,62,29,30.01,29.86,14,2,15,0.86
2013-9-22,84,70,56,59,52,42,92,59,24,29.90,29.75,11,0,12,0.00
2013-9-23,90,73,56,61,55,51,88,57,34,29.79,29.68,15,1,15,0.00
2013-9-24,92,76,62,63,58,52,89,58,27,29.91,29.78,12,1,12,0.00
2013-9-25,94,80,66,62,58,56,78,51,29,29.86,29.68,18,1,18,0.00
2013-9-26,92,79,66,65,60,56,79,54,32,29.79,29.70,17,2,18,0.00
2013-9-27,87,78,70,72,68,59,87,71,56,29.81,29.70,21,4,21,0.00
2013-9-28,78,70,63,72,64,57,94,84,74,30.06,29.74,28,4,26,1.02
2013-9-29,80,69,59,58,52,43,88,60,28,30.10,29.91,14,1,15,0.00
2013-9-30,90,71,54,65,57,50,96,67,30,29.93,29.73,13,1,14,0.00
2013-10-1,91,77,62,69,63,57,90,64,41,29.83,29.73,16,2,17,0.00
2013-10-2,90,79,68,70,66,64,94,69,45,29.86,29.73,19,3,19,0.00
2013-10-3,93,79,68,70,64,60,92,63,37,29.83,29.68,21,2,21,0.00
2013-10-4,92,80,70,69,66,62,90,65,41,29.80,29.69,19,2,19,0.00
2013-10-5,76,62,51,66,48,37,83,63,43,30.13,29.78,25,4,25,0.03
2013-10-6,77,61,45,47,40,26,91,55,16,30.22,30.09,18,2,19,0.03
2013-10-7,85,65,46,48,42,34,87,49,18,30.17,30.02,7,0,7,0.00
2013-10-8,87,68,51,49,44,40,77,45,20,30.04,29.88,13,1,13,0.00
2013-10-9,85,70,54,56,51,45,73,54,34,29.99,29.85,22,2,22,0.00
2013-10-10,86,73,62,63,58,54,85,62,36,29.94,29.74,25,4,25,0.00
2013-10-11,90,77,66,67,60,50,88,60,28,29.85,29.73,14,2,18,0.00
2013-10-12,89,76,65,68,61,50,85,61,36,29.99,29.81,11,0,11,0.00
2013-10-13,75,70,67,67,63,50,94,82,41,30.10,29.97,15,1,16,0.26
2013-10-14,80,72,67,70,68,65,96,88,71,30.07,29.83,14,1,14,0.27
2013-10-15,72,60,49,69,58,47,96,92,85,30.09,29.84,19,3,22,0.61
2013-10-16,63,56,49,49,48,46,93,75,56,30.15,30.05,10,1,14,0.05
2013-10-17,72,58,43,51,47,41,95,70,40,30.14,29.94,13,1,13,0.01
2013-10-18,75,61,47,63,53,40,86,77,63,30.16,29.83,33,3,33,0.00
2013-10-19,67,51,39,42,38,35,89,66,34,30.27,30.08,20,2,20,0.00
2013-10-20,78,60,43,57,49,40,88,69,47,30.09,29.80,19,1,19,0.00
2013-10-21,68,60,53,56,52,48,92,76,55,30.14,29.86,21,2,21,0.00
2013-10-22,74,59,43,48,43,37,92,62,27,30.22,30.08,11,1,11,0.00
2013-10-23,81,62,45,49,44,38,88,56,22,30.16,30.04,16,1,18,0.00
2013-10-24,80,62,45,51,46,42,89,60,29,30.21,30.09,12,1,13,0.00
2013-10-25,77,63,50,55,50,45,87,65,38,30.32,30.13,18,1,18,0.00
2013-10-26,79,68,60,63,59,52,93,74,52,30.15,29.99,20,2,20,0.00
2013-10-27,74,63,55,56,54,50,90,73,51,30.12,29.95,12,1,15,0.00
2013-10-28,83,71,58,67,62,55,92,76,51,29.99,29.85,22,3,22,0.00
2013-10-29,81,74,69,68,66,63,87,75,61,29.96,29.85,15,2,15,0.00
2013-10-30,75,71,70,69,67,65,92,86,79,29.91,29.69,20,3,20,0.08
2013-10-31,74,67,52,65,43,30,85,47,20,29.90,29.69,26,5,26,0.08
2013-11-1,75,59,44,42,38,31,80,50,20,30.17,29.81,26,4,26,0.00
2013-11-2,72,56,41,40,35,28,80,50,21,30.35,30.16,11,0,11,0.00
2013-11-3,70,55,44,47,39,35,72,57,31,30.19,29.91,22,2,22,0.00
2013-11-4,69,61,55,57,52,44,88,71,58,29.98,29.89,17,2,18,0.00
2013-11-5,73,66,60,64,61,57,94,86,70,29.95,29.83,14,1,15,0.03
2013-11-6,62,54,42,60,39,28,96,61,29,30.38,29.94,26,5,26,0.03
2013-11-7,65,50,35,39,33,28,87,57,27,30.54,30.38,11,0,11,0.03
2013-11-8,62,52,44,47,40,27,83,67,27,30.39,30.12,13,1,13,0.00
2013-11-9,76,58,44,53,47,39,88,68,44,30.15,30.01,13,1,13,0.00
2013-11-10,71,57,46,58,52,44,96,85,61,30.30,30.14,15,0,15,0.01
2013-11-11,75,62,54,58,55,52,95,78,50,30.26,30.11,12,0,13,0.00
2013-11-12,58,46,35,54,32,17,88,61,28,30.71,30.24,30,6,30,0.00
2013-11-13,56,40,26,28,19,14,79,48,20,30.71,30.37,8,0,8,0.00
2013-11-14,64,48,35,41,34,26,73,58,42,30.37,29.97,18,1,18,0.00
2013-11-15,79,57,37,51,44,34,90,65,35,30.00,29.78,15,1,15,0.00
2013-11-16,82,67,53,61,55,47,87,67,41,29.82,29.61,25,2,26,0.00
2013-11-17,83,69,55,60,50,41,91,57,23,29.94,29.68,30,3,30,0.00
2013-11-18,72,62,54,43,39,32,63,43,31,30.13,29.94,13,1,13,0.00
2013-11-19,76,65,58,51,46,40,74,51,40,30.09,29.87,15,3,21,0.00
2013-11-20,75,65,55,61,57,50,85,75,61,29.91,29.77,18,2,18,0.00
2013-11-21,80,66,40,66,58,33,92,76,51,30.21,29.85,32,4,32,0.02
2013-11-22,40,32,30,33,28,25,90,84,71,30.56,30.21,28,3,28,0.02
2013-11-23,34,32,31,32,29,27,92,86,76,30.63,30.54,13,0,15,0.01
2013-11-24,35,33,32,31,30,28,92,86,76,30.61,30.33,14,1,16,0.05
2013-11-25,39,36,32,34,32,30,93,87,81,30.35,30.16,12,1,12,0.11
2013-11-26,51,41,34,34,30,28,90,68,42,30.45,30.25,25,7,27,0.11
2013-11-27,50,39,28,30,26,18,85,61,37,30.54,30.36,12,0,12,0.00
2013-11-28,60,44,31,34,30,26,85,62,35,30.42,30.30,13,0,13,0.00
2013-11-29,63,46,31,41,35,27,85,68,44,30.48,30.30,14,0,14,0.00
2013-11-30,71,54,40,52,47,37,93,77,48,30.34,30.12,19,1,19,0.00
2013-12-1,64,56,45,56,51,43,96,86,74,30.17,29.94,16,2,17,0.00
2013-12-2,74,56,38,51,40,32,95,62,22,29.95,29.68,28,3,29,0.01
2013-12-3,83,61,41,42,35,25,75,44,12,29.69,29.55,21,3,21,0.00
2013-12-4,82,66,50,51,46,34,72,50,29,29.81,29.59,22,3,22,0.00
2013-12-5,49,31,24,34,20,11,89,65,43,30.26,29.81,27,8,27,0.01
2013-12-6,28,24,22,22,19,14,90,80,73,30.59,30.18,20,7,21,0.00
2013-12-7,24,21,18,16,13,9,76,71,65,30.63,30.32,16,3,16,0.00
2013-12-8,46,32,23,36,26,16,90,80,66,30.32,30.05,12,0,12,0.30
2013-12-9,32,29,27,29,27,24,93,90,84,30.52,30.10,16,3,16,0.30
2013-12-10,46,32,21,32,25,18,91,76,47,30.59,30.34,12,0,14,0.05
2013-12-11,47,37,30,32,28,25,84,72,48,30.65,30.32,16,2,17,0.05
2013-12-12,45,36,26,34,29,23,92,75,59,30.64,30.30,8,0,10,0.00
2013-12-13,63,50,41,46,41,34,80,70,51,30.31,29.81,22,2,22,0.00
2013-12-14,52,44,32,39,29,24,77,57,34,30.41,29.88,24,6,25,0.00
2013-12-15,62,42,25,34,27,21,88,60,25,30.43,30.25,16,1,16,0.00
2013-12-16,69,48,29,32,29,24,85,54,23,30.29,30.15,17,2,18,0.00
2013-12-17,71,50,33,39,33,28,82,56,26,30.33,30.22,8,0,10,0.00
2013-12-18,72,51,33,49,39,30,88,66,31,30.27,29.95,16,1,17,0.00
2013-12-19,71,60,50,54,51,45,90,75,53,29.95,29.70,17,2,17,0.00
2013-12-20,57,46,34,54,43,32,95,91,86,29.88,29.71,20,3,24,0.22
2013-12-21,60,49,37,49,40,34,97,74,39,29.82,29.60,33,6,33,0.77
2013-12-22,48,40,33,37,29,24,90,68,44,30.40,29.81,20,4,20,0.77
2013-12-23,56,40,27,36,30,24,91,71,46,30.54,30.40,12,0,12,0.00
2013-12-24,61,44,30,39,32,26,88,64,34,30.52,30.21,13,1,15,0.00
2013-12-25,49,41,33,36,32,27,82,72,57,30.47,30.21,22,3,22,0.00
2013-12-26,55,40,28,33,27,21,90,64,28,30.49,30.35,7,0,7,0.00
2013-12-27,56,41,29,40,32,24,90,70,39,30.48,30.34,9,0,9,0.00
2013-12-28,54,46,38,47,41,34,92,84,71,30.34,29.97,17,1,17,0.00
2013-12-29,50,39,28,46,34,20,92,83,67,30.38,29.94,23,5,28,0.00
2013-12-30,52,37,25,28,24,20,83,60,38,30.45,30.29,10,0,10,0.00
2013-12-31,61,42,27,34,29,23,87,64,32,30.47,30.18,18,1,19,0.00
2014-1-1,68,50,36,42,35,26,81,59,35,30.27,29.92,26,6,28,0.00
2014-1-2,49,36,27,26,23,20,75,59,37,30.54,30.27,22,4,24,0.00